EWG61W LEBL-EDDH

Flight info

Callsign EWG61W
Flight time N/A
Altitude 36000
Route DALIN DCT PIVUS DCT DIBER DCT ADITA DCT MAXIR DCT LUSOL DCT BODRU DCT OKTET DCT IRMAR DCT KINES DCT VANAS DCT MOBLO DCT UBIMA DCT SOSAL DCT KORED DCT BERSU N871 DITON/N0451F350 DCT LOKTA DCT TEDGO DCT HAREM DCT LOHRE DCT ELNAT/N0449F360 P605 NOLGO NOLGO6A
Aircraft A321/M-SDE3FGHIRWY/LB1

Departure

Time N/A
Airport Josep Tarradellas Barcelona-El Prat Airport (LEBL)

Arrival

Time 2026-04-30 19:03
Airport Hamburg Helmut Schmidt Airport (EDDH)
Time Latitude Longitude Altitude Speed Heading
2026-04-30 17:39 45.69453 6.62581 36226 ft 449 kts 11°
2026-04-30 17:42 45.99981 6.71636 36225 ft 447 kts 12°
2026-04-30 17:43 46.15183 6.76174 36214 ft 446 kts 12°
2026-04-30 17:44 46.33396 6.81652 36207 ft 445 kts 12°
2026-04-30 17:47 46.58736 6.91654 36191 ft 436 kts 36°
2026-04-30 17:48 46.75709 7.10346 36209 ft 438 kts 37°
2026-04-30 17:50 46.95107 7.31895 36219 ft 438 kts 37°
2026-04-30 17:52 47.09583 7.48095 36217 ft 435 kts 37°
2026-04-30 17:54 47.31067 7.72378 36247 ft 433 kts 37°
2026-04-30 17:56 47.50095 7.94108 36254 ft 432 kts 37°
2026-04-30 17:58 47.64140 8.10232 36248 ft 422 kts 38°
2026-04-30 18:00 47.82686 8.31750 36253 ft 424 kts 38°
2026-04-30 18:01 47.94307 8.45332 36283 ft 425 kts 38°
2026-04-30 18:02 48.08188 8.61713 36309 ft 423 kts 38°
2026-04-30 18:04 48.21997 8.78042 36314 ft 420 kts 38°
2026-04-30 18:06 48.40266 8.99875 36315 ft 419 kts 39°
2026-04-30 18:08 48.56099 9.18954 36314 ft 412 kts 39°
2026-04-30 18:09 48.66227 9.26587 36319 ft 418 kts
2026-04-30 18:10 48.77824 9.28363 36315 ft 419 kts
2026-04-30 18:11 48.98131 9.31645 36325 ft 419 kts
2026-04-30 18:13 49.12635 9.33981 36337 ft 419 kts
2026-04-30 18:14 49.27101 9.36336 36343 ft 419 kts
2026-04-30 18:15 49.44547 9.39185 36332 ft 422 kts
2026-04-30 18:16 49.56257 9.41104 36358 ft 424 kts
2026-04-30 18:17 49.62156 9.42079 36364 ft 424 kts
2026-04-30 18:18 49.70951 9.43540 36374 ft 424 kts
2026-04-30 18:18 49.76812 9.44513 36383 ft 424 kts
2026-04-30 18:19 49.82678 9.45485 36376 ft 424 kts
2026-04-30 18:19 49.88542 9.46454 36376 ft 424 kts
2026-04-30 18:20 49.94403 9.47437 36387 ft 424 kts
2026-04-30 18:20 50.00232 9.48400 36387 ft 424 kts
2026-04-30 18:21 50.06134 9.49392 36379 ft 424 kts
2026-04-30 18:21 50.11994 9.50395 36386 ft 424 kts
2026-04-30 18:22 50.17854 9.51384 36392 ft 424 kts
2026-04-30 18:22 50.26607 9.52852 36397 ft 423 kts
2026-04-30 18:23 50.32467 9.53844 36402 ft 423 kts
2026-04-30 18:23 50.38321 9.54851 36403 ft 423 kts
2026-04-30 18:24 50.47109 9.56355 36409 ft 424 kts
2026-04-30 18:25 50.52970 9.57354 36410 ft 423 kts
2026-04-30 18:25 50.61756 9.58862 36421 ft 423 kts
2026-04-30 18:26 50.70543 9.60381 36427 ft 424 kts
2026-04-30 18:26 50.73466 9.60885 36276 ft 422 kts
2026-04-30 18:27 50.79307 9.61899 36029 ft 423 kts
2026-04-30 18:27 50.82225 9.62408 35908 ft 423 kts
2026-04-30 18:28 50.88083 9.63428 35656 ft 424 kts
2026-04-30 18:28 50.91018 9.63938 35535 ft 424 kts
2026-04-30 18:28 50.96892 9.64959 35277 ft 425 kts
2026-04-30 18:29 50.99838 9.65473 35158 ft 426 kts
2026-04-30 18:29 51.08694 9.67033 34792 ft 427 kts
2026-04-30 18:30 51.13649 9.67908 34591 ft 428 kts
2026-04-30 18:30 51.19569 9.69028 34336 ft 431 kts
2026-04-30 18:31 51.22512 9.69607 34201 ft 432 kts
2026-04-30 18:31 51.28496 9.70796 33928 ft 434 kts
2026-04-30 18:32 51.34512 9.71974 33657 ft 437 kts
2026-04-30 18:32 51.37529 9.72556 33515 ft 437 kts
2026-04-30 18:32 51.43576 9.73731 33244 ft 438 kts
2026-04-30 18:33 51.46607 9.74325 33113 ft 439 kts
2026-04-30 18:33 51.52673 9.75515 32851 ft 439 kts
2026-04-30 18:33 51.55710 9.76111 32720 ft 440 kts
2026-04-30 18:34 51.58750 9.76709 32586 ft 440 kts
2026-04-30 18:34 51.64831 9.77911 32430 ft 441 kts
2026-04-30 18:35 51.70925 9.79120 32433 ft 441 kts
2026-04-30 18:35 51.77015 9.80325 32431 ft 441 kts
2026-04-30 18:36 51.86156 9.82148 32105 ft 441 kts
2026-04-30 18:36 51.92261 9.83369 31595 ft 443 kts
2026-04-30 18:37 51.95318 9.83979 31341 ft 443 kts
2026-04-30 18:37 51.98379 9.84588 31096 ft 444 kts
2026-04-30 18:37 52.01446 9.85201 30851 ft 444 kts
2026-04-30 18:37 52.04514 9.85816 30607 ft 445 kts
2026-04-30 18:38 52.07589 9.86433 30330 ft 445 kts
2026-04-30 18:38 52.10667 9.87052 29958 ft 446 kts
2026-04-30 18:38 52.13744 9.87670 29593 ft 446 kts
2026-04-30 18:38 52.16827 9.88290 29243 ft 447 kts
2026-04-30 18:39 52.19921 9.88915 28873 ft 448 kts
2026-04-30 18:39 52.23021 9.89545 28514 ft 450 kts
2026-04-30 18:39 52.26134 9.90180 28050 ft 452 kts
2026-04-30 18:39 52.29235 9.90810 27386 ft 444 kts
2026-04-30 18:40 52.32273 9.91427 26749 ft 437 kts
2026-04-30 18:40 52.35272 9.92035 26121 ft 431 kts
2026-04-30 18:40 52.38232 9.92636 25503 ft 426 kts
2026-04-30 18:40 52.41159 9.93231 24913 ft 422 kts
2026-04-30 18:41 52.44017 9.93814 24333 ft 418 kts
2026-04-30 18:41 52.46930 9.94407 23698 ft 414 kts
2026-04-30 18:41 52.49741 9.94983 23026 ft 411 kts
2026-04-30 18:41 52.52565 9.95561 22366 ft 407 kts
2026-04-30 18:42 52.55368 9.96138 21726 ft 404 kts
2026-04-30 18:42 52.60984 9.97302 20450 ft 414 kts 10°
2026-04-30 18:42 52.63841 9.97896 19847 ft 413 kts 10°
2026-04-30 18:45 52.90764 10.03480 13587 ft 368 kts 11°
2026-04-30 18:45 52.93295 10.04007 13073 ft 365 kts 11°
2026-04-30 18:45 52.95814 10.04535 12809 ft 365 kts 11°
2026-04-30 18:46 52.98299 10.05057 12560 ft 364 kts 11°
2026-04-30 18:46 53.00841 10.05592 12304 ft 363 kts 11°
2026-04-30 18:46 53.03291 10.06105 12056 ft 356 kts 11°
2026-04-30 18:46 53.05698 10.06604 11805 ft 341 kts 11°
2026-04-30 18:47 53.07995 10.07078 11638 ft 324 kts 11°
2026-04-30 18:47 53.10189 10.07537 11397 ft 313 kts 11°
2026-04-30 18:47 53.12335 10.07995 10972 ft 309 kts 11°
2026-04-30 18:47 53.14460 10.08452 10554 ft 306 kts 11°
2026-04-30 18:48 53.16525 10.08893 10416 ft 292 kts 11°
2026-04-30 18:48 53.18507 10.09311 10437 ft 286 kts 11°
2026-04-30 18:48 53.20482 10.09732 10441 ft 286 kts 11°
2026-04-30 18:48 53.22454 10.10155 10436 ft 286 kts 11°
2026-04-30 18:49 53.24425 10.10578 10436 ft 286 kts 11°
2026-04-30 18:49 53.26395 10.11000 10433 ft 286 kts 11°
2026-04-30 18:49 53.28370 10.11418 10439 ft 286 kts 11°
2026-04-30 18:49 53.30341 10.11835 10439 ft 286 kts 11°
2026-04-30 18:50 53.32336 10.11712 10437 ft 293 kts 348°
2026-04-30 18:50 53.34178 10.10192 10157 ft 301 kts 323°
2026-04-30 18:50 53.35542 10.07534 9762 ft 302 kts 306°
2026-04-30 18:50 53.36685 10.04586 9371 ft 301 kts 304°
2026-04-30 18:51 53.37795 10.01638 9060 ft 296 kts 304°
2026-04-30 18:51 53.38876 9.98751 8801 ft 290 kts 304°
2026-04-30 18:51 53.39935 9.95918 8561 ft 283 kts 304°
2026-04-30 18:51 53.40966 9.93151 8357 ft 276 kts 304°
2026-04-30 18:52 53.41929 9.90438 8203 ft 268 kts 296°
2026-04-30 18:52 53.42281 9.87423 7936 ft 265 kts 265°
2026-04-30 18:52 53.41782 9.84497 7574 ft 261 kts 243°
2026-04-30 18:52 53.40962 9.81783 7241 ft 260 kts 239°
2026-04-30 18:53 53.40108 9.79115 6922 ft 259 kts 239°
2026-04-30 18:53 53.39251 9.76462 6587 ft 258 kts 239°
2026-04-30 18:53 53.38396 9.73830 6271 ft 256 kts 239°
2026-04-30 18:53 53.37551 9.71226 5961 ft 254 kts 239°
2026-04-30 18:54 53.36725 9.68684 5747 ft 249 kts 239°
2026-04-30 18:54 53.35892 9.66122 5687 ft 251 kts 239°
2026-04-30 18:54 53.35045 9.63516 5612 ft 251 kts 239°
2026-04-30 18:54 53.34417 9.60850 5527 ft 252 kts 262°
2026-04-30 18:55 53.34610 9.57966 5451 ft 252 kts 294°
2026-04-30 18:55 53.37033 9.54067 5302 ft 243 kts 344°
2026-04-30 18:55 53.38672 9.53616 5226 ft 237 kts
2026-04-30 18:56 53.41544 9.55755 5028 ft 227 kts 50°
2026-04-30 18:56 53.42561 9.57764 5005 ft 226 kts 53°
2026-04-30 18:56 53.43579 9.59788 5006 ft 227 kts 52°
2026-04-30 18:57 53.45615 9.63840 4950 ft 228 kts 52°
2026-04-30 18:57 53.46630 9.65865 4705 ft 226 kts 52°
2026-04-30 18:57 53.47624 9.67848 4416 ft 219 kts 52°
2026-04-30 18:58 53.49526 9.71647 3872 ft 203 kts 52°
2026-04-30 18:58 53.50413 9.73422 3592 ft 194 kts 52°
2026-04-30 18:58 53.51260 9.75116 3331 ft 186 kts 52°
2026-04-30 18:59 53.52891 9.78389 2851 ft 182 kts 52°
2026-04-30 19:00 53.55308 9.83240 2104 ft 179 kts 53°
2026-04-30 19:00 53.56102 9.84835 1860 ft 176 kts 52°
2026-04-30 19:00 53.57573 9.87802 1419 ft 151 kts 52°
2026-04-30 19:01 53.58848 9.90365 992 ft 138 kts 51°
2026-04-30 19:01 53.59473 9.91630 829 ft 142 kts 51°
2026-04-30 19:02 53.60732 9.94168 481 ft 141 kts 51°
2026-04-30 19:02 53.61969 9.96659 90 ft 136 kts 51°
2026-04-30 19:03 53.62919 9.98579 45 ft 63 kts 50°
2026-04-30 19:03 53.63281 9.99348 47 ft 29 kts 71°
2026-04-30 19:04 53.63282 9.99613 48 ft 0 kts 99°
2026-04-30 19:04 53.63278 9.99658 48 ft 6 kts 99°
2026-04-30 19:05 53.63125 9.99847 48 ft 19 kts 153°
2026-04-30 19:05 53.62979 9.99972 48 ft 0 kts 152°
2026-04-30 19:06 53.62950 9.99998 48 ft 10 kts 152°
2026-04-30 19:07 53.62805 10.00108 48 ft 11 kts 152°
2026-04-30 19:07 53.62790 10.00183 48 ft 7 kts 68°
2026-04-30 19:08 53.62809 10.00246 48 ft 0 kts 63°